Time,TemperatureF,DewpointF,PressureIn,WindDirection,WindDirectionDegrees,WindSpeedMPH,WindSpeedGustMPH,Humidity,HourlyPrecipIn,Conditions,Clouds,dailyrainin,SoftwareType,DateUTC
2013-05-15 00:04:00,62.4,28.0,29.68,SSE,159,6.7,6.7,27,0.00,,---,0.00,VWS V14.00,2013-05-15 07:04:00,
2013-05-15 00:10:00,62.2,27.9,29.68,South,181,5.4,6.3,27,0.00,,---,0.00,VWS V14.00,2013-05-15 07:10:00,
2013-05-15 00:15:00,62.1,28.6,29.68,South,181,5.4,5.4,28,0.00,,---,0.00,VWS V14.00,2013-05-15 07:15:00,
2013-05-15 00:20:00,62.1,28.6,29.68,South,186,5.8,5.8,28,0.00,,---,0.00,VWS V14.00,2013-05-15 07:20:00,
2013-05-15 00:25:00,61.7,28.3,29.68,SSW,199,4.5,4.5,28,0.00,,---,0.00,VWS V14.00,2013-05-15 07:25:00,
2013-05-15 00:31:00,61.5,29.0,29.68,SE,137,3.1,4.9,29,0.00,,---,0.00,VWS V14.00,2013-05-15 07:31:00,
2013-05-15 00:36:00,61.3,28.8,29.71,SSE,157,4.9,4.9,29,0.00,,---,0.00,VWS V14.00,2013-05-15 07:36:00,
2013-05-15 00:41:00,61.2,28.7,29.71,SSE,156,6.3,6.3,29,0.00,,---,0.00,VWS V14.00,2013-05-15 07:41:00,
2013-05-15 00:46:00,60.8,28.4,29.71,ESE,107,4.9,4.9,29,0.00,,---,0.00,VWS V14.00,2013-05-15 07:46:00,
2013-05-15 00:52:00,60.8,28.4,29.71,SE,142,8.3,8.3,29,0.00,,---,0.00,VWS V14.00,2013-05-15 07:52:00,
2013-05-15 00:57:00,60.4,28.9,29.71,ESE,121,5.8,5.8,30,0.00,,---,0.00,VWS V14.00,2013-05-15 07:57:00,
2013-05-15 01:03:00,60.3,28.7,29.71,SE,144,3.6,3.6,30,0.00,,---,0.00,VWS V14.00,2013-05-15 08:03:00,
2013-05-15 01:08:00,60.1,28.6,29.71,SE,129,4.0,4.0,30,0.00,,---,0.00,VWS V14.00,2013-05-15 08:08:00,
2013-05-15 01:13:00,59.7,29.1,29.71,SSE,156,4.0,4.0,31,0.00,,---,0.00,VWS V14.00,2013-05-15 08:13:00,
2013-05-15 01:18:00,59.5,28.9,29.71,SSE,168,3.6,3.6,31,0.00,,---,0.00,VWS V14.00,2013-05-15 08:18:00,
2013-05-15 01:24:00,59.4,28.7,29.71,SSE,160,4.0,4.0,31,0.00,,---,0.00,VWS V14.00,2013-05-15 08:24:00,
2013-05-15 01:29:00,59.4,29.5,29.71,East,95,2.7,2.7,32,0.00,,---,0.00,VWS V14.00,2013-05-15 08:29:00,
2013-05-15 01:34:00,59.2,29.4,29.71,ESE,112,4.0,5.4,32,0.00,,---,0.00,VWS V14.00,2013-05-15 08:34:00,
2013-05-15 01:39:00,59.2,29.4,29.71,SE,138,3.1,5.8,32,0.00,,---,0.00,VWS V14.00,2013-05-15 08:39:00,
2013-05-15 01:44:00,59.2,29.4,29.71,SSE,150,6.3,6.3,32,0.00,,---,0.00,VWS V14.00,2013-05-15 08:44:00,
2013-05-15 01:49:00,59.2,29.4,29.68,SE,131,5.4,6.3,32,0.00,,---,0.00,VWS V14.00,2013-05-15 08:49:00,
2013-05-15 01:55:00,59.0,29.2,29.68,SSE,161,5.8,5.8,32,0.00,,---,0.00,VWS V14.00,2013-05-15 08:55:00,
2013-05-15 02:00:00,58.8,29.8,29.68,SSE,160,6.3,6.3,33,0.00,,---,0.00,VWS V14.00,2013-05-15 09:00:00,
2013-05-15 02:05:00,58.8,29.8,29.68,SSE,154,8.3,8.3,33,0.00,,---,0.00,VWS V14.00,2013-05-15 09:05:00,
2013-05-15 02:10:00,58.5,29.5,29.68,SSE,164,5.4,5.4,33,0.00,,---,0.00,VWS V14.00,2013-05-15 09:10:00,
2013-05-15 02:16:00,58.3,29.3,29.68,South,179,6.3,6.3,33,0.00,,---,0.00,VWS V14.00,2013-05-15 09:16:00,
2013-05-15 02:21:00,58.1,29.9,29.68,SSE,168,6.3,6.3,34,0.00,,---,0.00,VWS V14.00,2013-05-15 09:21:00,
2013-05-15 02:26:00,58.1,29.9,29.68,ESE,111,4.9,4.9,34,0.00,,---,0.00,VWS V14.00,2013-05-15 09:26:00,
2013-05-15 02:31:00,57.9,29.7,29.68,SE,131,5.8,5.8,34,0.00,,---,0.00,VWS V14.00,2013-05-15 09:31:00,
2013-05-15 02:37:00,57.7,30.3,29.68,SE,137,6.3,6.3,35,0.00,,---,0.00,VWS V14.00,2013-05-15 09:37:00,
2013-05-15 02:42:00,57.7,30.3,29.68,SSE,155,3.6,6.3,35,0.00,,---,0.00,VWS V14.00,2013-05-15 09:42:00,
2013-05-15 02:47:00,57.4,30.0,29.71,SE,129,3.6,6.7,35,0.00,,---,0.00,VWS V14.00,2013-05-15 09:47:00,
2013-05-15 02:52:00,57.4,30.0,29.71,SSW,194,3.6,5.8,35,0.00,,---,0.00,VWS V14.00,2013-05-15 09:52:00,
2013-05-15 02:58:00,57.2,29.8,29.71,SE,135,5.4,5.4,35,0.00,,---,0.00,VWS V14.00,2013-05-15 09:58:00,
2013-05-15 03:03:00,57.0,30.4,29.68,SSE,152,3.1,5.8,36,0.00,,---,0.00,VWS V14.00,2013-05-15 10:03:00,
2013-05-15 03:08:00,57.0,30.4,29.68,ESE,108,8.3,8.3,36,0.00,,---,0.00,VWS V14.00,2013-05-15 10:08:00,
2013-05-15 03:14:00,56.8,30.2,29.68,SE,143,8.3,8.3,36,0.00,,---,0.00,VWS V14.00,2013-05-15 10:14:00,
2013-05-15 03:20:00,56.8,30.2,29.71,SE,142,3.6,3.6,36,0.00,,---,0.00,VWS V14.00,2013-05-15 10:20:00,
2013-05-15 03:25:00,56.8,30.2,29.71,ESE,110,4.0,4.0,36,0.00,,---,0.00,VWS V14.00,2013-05-15 10:25:00,
2013-05-15 03:30:00,56.7,30.0,29.71,SSE,158,3.6,5.4,36,0.00,,---,0.00,VWS V14.00,2013-05-15 10:30:00,
2013-05-15 03:35:00,56.7,30.0,29.71,South,181,4.0,6.3,36,0.00,,---,0.00,VWS V14.00,2013-05-15 10:35:00,
2013-05-15 03:41:00,56.5,29.9,29.71,South,172,9.2,9.2,36,0.00,,---,0.00,VWS V14.00,2013-05-15 10:41:00,
2013-05-15 03:47:00,56.5,29.9,29.71,South,177,5.8,5.8,36,0.00,,---,0.00,VWS V14.00,2013-05-15 10:47:00,
2013-05-15 03:53:00,56.5,29.9,29.71,ESE,123,5.4,5.4,36,0.00,,---,0.00,VWS V14.00,2013-05-15 10:53:00,
2013-05-15 03:59:00,56.3,29.7,29.71,SSE,149,5.4,8.1,36,0.00,,---,0.00,VWS V14.00,2013-05-15 10:59:00,
2013-05-15 04:05:00,56.3,29.7,29.71,SSE,167,5.4,5.4,36,0.00,,---,0.00,VWS V14.00,2013-05-15 11:05:00,
2013-05-15 04:11:00,56.3,29.7,29.71,SSE,160,10.5,10.5,36,0.00,,---,0.00,VWS V14.00,2013-05-15 11:11:00,
2013-05-15 04:17:00,56.3,29.7,29.71,SE,129,3.6,3.6,36,0.00,,---,0.00,VWS V14.00,2013-05-15 11:17:00,
2013-05-15 04:22:00,55.9,29.4,29.71,SSE,164,6.3,6.3,36,0.00,,---,0.00,VWS V14.00,2013-05-15 11:22:00,
2013-05-15 04:27:00,55.9,29.4,29.71,SE,127,2.7,2.7,36,0.00,,---,0.00,VWS V14.00,2013-05-15 11:27:00,
2013-05-15 04:32:00,55.8,29.9,29.71,ESE,111,5.4,5.4,37,0.00,,---,0.00,VWS V14.00,2013-05-15 11:32:00,
2013-05-15 04:38:00,55.6,29.7,29.71,ESE,123,3.1,3.1,37,0.00,,---,0.00,VWS V14.00,2013-05-15 11:38:00,
2013-05-15 04:44:00,55.4,29.6,29.71,ESE,115,4.0,4.0,37,0.00,,---,0.00,VWS V14.00,2013-05-15 11:44:00,
2013-05-15 04:50:00,55.4,29.6,29.71,South,178,7.6,7.6,37,0.00,,---,0.00,VWS V14.00,2013-05-15 11:50:00,
2013-05-15 04:55:00,55.2,29.4,29.71,SSE,149,7.6,7.6,37,0.00,,---,0.00,VWS V14.00,2013-05-15 11:55:00,
2013-05-15 05:00:00,55.2,29.4,29.71,SSE,165,5.4,5.4,37,0.00,,---,0.00,VWS V14.00,2013-05-15 12:00:00,
2013-05-15 05:05:00,55.2,29.4,29.71,South,175,5.8,5.8,37,0.00,,---,0.00,VWS V14.00,2013-05-15 12:05:00,
2013-05-15 05:11:00,55.2,29.4,29.71,SSE,158,4.0,4.0,37,0.00,,---,0.00,VWS V14.00,2013-05-15 12:11:00,
2013-05-15 05:17:00,55.2,29.4,29.71,South,177,5.4,5.4,37,0.00,,---,0.00,VWS V14.00,2013-05-15 12:17:00,
2013-05-15 05:23:00,55.0,29.3,29.71,SSE,162,3.6,6.3,37,0.00,,---,0.00,VWS V14.00,2013-05-15 12:23:00,
2013-05-15 05:29:00,55.0,29.3,29.71,SSE,157,5.4,5.4,37,0.00,,---,0.00,VWS V14.00,2013-05-15 12:29:00,
2013-05-15 05:35:00,55.0,29.3,29.71,SSE,160,5.4,6.3,37,0.00,,---,0.00,VWS V14.00,2013-05-15 12:35:00,
2013-05-15 05:41:00,54.7,28.9,29.71,South,169,6.3,6.3,37,0.00,,---,0.00,VWS V14.00,2013-05-15 12:41:00,
2013-05-15 05:47:00,54.7,28.9,29.71,SSE,158,3.1,3.1,37,0.00,,---,0.00,VWS V14.00,2013-05-15 12:47:00,
2013-05-15 05:52:00,54.7,29.6,29.71,SE,146,4.9,4.9,38,0.00,,---,0.00,VWS V14.00,2013-05-15 12:52:00,
2013-05-15 05:57:00,54.5,29.4,29.71,SSE,157,5.4,5.4,38,0.00,,---,0.00,VWS V14.00,2013-05-15 12:57:00,
2013-05-15 06:02:00,54.5,29.4,29.71,SE,128,12.3,12.3,38,0.00,,---,0.00,VWS V14.00,2013-05-15 13:02:00,
2013-05-15 06:08:00,54.5,29.4,29.71,South,171,6.3,6.3,38,0.00,,---,0.00,VWS V14.00,2013-05-15 13:08:00,
2013-05-15 06:14:00,54.5,29.4,29.71,East,89,5.8,5.8,38,0.00,,---,0.00,VWS V14.00,2013-05-15 13:14:00,
2013-05-15 06:19:00,54.5,29.4,29.74,SE,129,9.2,9.2,38,0.00,,---,0.00,VWS V14.00,2013-05-15 13:19:00,
2013-05-15 06:25:00,54.5,29.4,29.74,SSE,163,5.8,5.8,38,0.00,,---,0.00,VWS V14.00,2013-05-15 13:25:00,
2013-05-15 06:30:00,54.5,29.4,29.74,South,173,3.6,4.0,38,0.00,,---,0.00,VWS V14.00,2013-05-15 13:30:00,
2013-05-15 06:35:00,54.5,29.4,29.71,SSE,167,3.6,3.6,38,0.00,,---,0.00,VWS V14.00,2013-05-15 13:35:00,
2013-05-15 06:40:00,54.5,29.4,29.71,SSE,163,6.3,6.3,38,0.00,,---,0.00,VWS V14.00,2013-05-15 13:40:00,
2013-05-15 06:46:00,54.9,29.8,29.71,South,189,4.9,5.8,38,0.00,,---,0.00,VWS V14.00,2013-05-15 13:46:00,
2013-05-15 06:51:00,55.0,29.9,29.74,SW,224,5.8,7.6,38,0.00,,---,0.00,VWS V14.00,2013-05-15 13:51:00,
2013-05-15 06:57:00,55.2,30.1,29.74,SE,145,5.8,5.8,38,0.00,,---,0.00,VWS V14.00,2013-05-15 13:57:00,
2013-05-15 07:02:00,55.4,29.6,29.74,SSE,166,11.0,11.0,37,0.00,,---,0.00,VWS V14.00,2013-05-15 14:02:00,
2013-05-15 07:07:00,55.6,29.7,29.74,South,175,6.3,6.3,37,0.00,,---,0.00,VWS V14.00,2013-05-15 14:07:00,
2013-05-15 07:13:00,55.6,29.7,29.74,ESE,122,6.3,6.3,37,0.00,,---,0.00,VWS V14.00,2013-05-15 14:13:00,
2013-05-15 07:18:00,55.8,29.9,29.74,South,179,8.3,8.3,37,0.00,,---,0.00,VWS V14.00,2013-05-15 14:18:00,
2013-05-15 07:23:00,55.8,29.9,29.74,South,173,8.3,8.3,37,0.00,,---,0.00,VWS V14.00,2013-05-15 14:23:00,
2013-05-15 07:28:00,55.9,30.1,29.74,SSE,152,5.4,7.6,37,0.00,,---,0.00,VWS V14.00,2013-05-15 14:28:00,
2013-05-15 07:34:00,55.9,30.1,29.74,SSE,159,8.3,8.3,37,0.00,,---,0.00,VWS V14.00,2013-05-15 14:34:00,
2013-05-15 07:39:00,56.3,29.7,29.74,SSE,149,8.3,8.3,36,0.00,,---,0.00,VWS V14.00,2013-05-15 14:39:00,
2013-05-15 07:46:00,56.7,30.0,29.74,SSE,152,7.6,7.6,36,0.00,,---,0.00,VWS V14.00,2013-05-15 14:46:00,
2013-05-15 07:51:00,57.0,30.4,29.74,SSE,167,10.1,10.1,36,0.00,,---,0.00,VWS V14.00,2013-05-15 14:51:00,
2013-05-15 07:56:00,57.2,29.8,29.74,SW,228,5.4,5.8,35,0.00,,---,0.00,VWS V14.00,2013-05-15 14:56:00,
2013-05-15 08:02:00,57.6,30.1,29.74,SSE,153,5.4,5.4,35,0.00,,---,0.00,VWS V14.00,2013-05-15 15:02:00,
2013-05-15 08:07:00,57.6,30.1,29.74,SSE,165,4.9,6.3,35,0.00,,---,0.00,VWS V14.00,2013-05-15 15:07:00,
2013-05-15 08:13:00,58.1,30.6,29.74,South,180,8.7,8.7,35,0.00,,---,0.00,VWS V14.00,2013-05-15 15:13:00,
2013-05-15 08:18:00,58.1,30.6,29.74,South,185,8.3,8.3,35,0.00,,---,0.00,VWS V14.00,2013-05-15 15:18:00,
2013-05-15 08:23:00,58.3,30.8,29.74,SSE,163,10.5,10.5,35,0.00,,---,0.00,VWS V14.00,2013-05-15 15:23:00,
2013-05-15 08:29:00,58.8,31.2,29.74,SW,230,6.3,6.3,35,0.00,,---,0.00,VWS V14.00,2013-05-15 15:29:00,
2013-05-15 08:35:00,59.2,30.9,29.74,SSW,203,7.6,7.6,34,0.00,,---,0.00,VWS V14.00,2013-05-15 15:35:00,
2013-05-15 08:40:00,59.4,30.3,29.74,South,177,5.4,10.1,33,0.00,,---,0.00,VWS V14.00,2013-05-15 15:40:00,
2013-05-15 08:45:00,59.7,31.3,29.74,SE,135,5.8,5.8,34,0.00,,---,0.00,VWS V14.00,2013-05-15 15:45:00,
2013-05-15 08:51:00,60.4,31.2,29.74,SSW,208,3.6,3.6,33,0.00,,---,0.00,VWS V14.00,2013-05-15 15:51:00,
2013-05-15 08:56:00,61.2,30.3,29.74,SE,140,4.0,5.4,31,0.00,,---,0.00,VWS V14.00,2013-05-15 15:56:00,
2013-05-15 09:02:00,61.5,31.4,29.74,SSE,158,8.1,8.1,32,0.00,,---,0.00,VWS V14.00,2013-05-15 16:02:00,
2013-05-15 09:07:00,62.1,31.1,29.77,SW,217,5.8,5.8,31,0.00,,---,0.00,VWS V14.00,2013-05-15 16:07:00,
2013-05-15 09:12:00,62.6,30.8,29.77,SE,145,5.8,5.8,30,0.00,,---,0.00,VWS V14.00,2013-05-15 16:12:00,
2013-05-15 09:18:00,62.6,29.9,29.77,South,180,8.1,8.7,29,0.00,,---,0.00,VWS V14.00,2013-05-15 16:18:00,
2013-05-15 09:23:00,62.8,30.1,29.77,SE,143,8.1,8.1,29,0.00,,---,0.00,VWS V14.00,2013-05-15 16:23:00,
2013-05-15 09:28:00,63.0,29.4,29.77,SW,226,8.1,8.1,28,0.00,,---,0.00,VWS V14.00,2013-05-15 16:28:00,
2013-05-15 09:33:00,63.0,29.4,29.77,East,98,5.8,5.8,28,0.00,,---,0.00,VWS V14.00,2013-05-15 16:33:00,
2013-05-15 09:38:00,64.0,30.3,29.77,SSW,195,6.3,6.3,28,0.00,,---,0.00,VWS V14.00,2013-05-15 16:38:00,
2013-05-15 09:44:00,64.2,30.5,29.77,SSW,198,5.4,5.4,28,0.00,,---,0.00,VWS V14.00,2013-05-15 16:44:00,
2013-05-15 09:50:00,64.8,30.0,29.77,SSE,162,8.1,8.1,27,0.00,,---,0.00,VWS V14.00,2013-05-15 16:50:00,
2013-05-15 09:56:00,64.8,30.0,29.77,SW,219,5.4,5.4,27,0.00,,---,0.00,VWS V14.00,2013-05-15 16:56:00,
2013-05-15 10:02:00,64.8,30.0,29.77,SW,229,4.0,4.0,27,0.00,,---,0.00,VWS V14.00,2013-05-15 17:02:00,
2013-05-15 10:08:00,65.5,29.7,29.77,SSW,210,3.1,3.1,26,0.00,,---,0.00,VWS V14.00,2013-05-15 17:08:00,
2013-05-15 10:13:00,65.5,29.7,29.77,SSE,166,4.0,4.0,26,0.00,,---,0.00,VWS V14.00,2013-05-15 17:13:00,
2013-05-15 10:19:00,66.6,30.6,29.77,ESE,115,5.8,5.8,26,0.00,,---,0.00,VWS V14.00,2013-05-15 17:19:00,
2013-05-15 10:26:00,67.1,29.1,29.77,South,182,4.0,4.0,24,0.00,,---,0.00,VWS V14.00,2013-05-15 17:26:00,
2013-05-15 10:31:00,68.0,29.9,29.77,South,174,8.3,8.3,24,0.00,,---,0.00,VWS V14.00,2013-05-15 17:31:00,
2013-05-15 10:36:00,68.0,29.9,29.77,SE,137,3.6,5.8,24,0.00,,---,0.00,VWS V14.00,2013-05-15 17:36:00,
2013-05-15 10:41:00,68.4,30.2,29.77,South,179,6.3,6.3,24,0.00,,---,0.00,VWS V14.00,2013-05-15 17:41:00,
2013-05-15 10:46:00,68.5,29.3,29.77,South,185,5.4,7.6,23,0.00,,---,0.00,VWS V14.00,2013-05-15 17:46:00,
2013-05-15 10:52:00,69.4,30.1,29.77,ESE,103,5.8,5.8,23,0.00,,---,0.00,VWS V14.00,2013-05-15 17:52:00,
2013-05-15 10:58:00,69.8,30.4,29.77,SSE,167,2.7,5.4,23,0.00,,---,0.00,VWS V14.00,2013-05-15 17:58:00,
2013-05-15 11:04:00,70.0,30.5,29.77,SSE,160,5.8,5.8,23,0.00,,---,0.00,VWS V14.00,2013-05-15 18:04:00,
2013-05-15 11:09:00,70.7,31.1,29.77,South,170,5.8,7.6,23,0.00,,---,0.00,VWS V14.00,2013-05-15 18:09:00,
2013-05-15 11:14:00,71.1,31.4,29.77,SW,216,4.0,4.0,23,0.00,,---,0.00,VWS V14.00,2013-05-15 18:14:00,
2013-05-15 11:20:00,71.2,30.5,29.77,SSE,157,4.0,4.0,22,0.00,,---,0.00,VWS V14.00,2013-05-15 18:20:00,
2013-05-15 11:26:00,71.2,30.5,29.77,SSE,151,6.3,6.3,22,0.00,,---,0.00,VWS V14.00,2013-05-15 18:26:00,
2013-05-15 11:32:00,71.4,30.6,29.77,SE,140,5.4,5.4,22,0.00,,---,0.00,VWS V14.00,2013-05-15 18:32:00,
2013-05-15 11:38:00,71.6,30.8,29.77,SE,126,8.7,8.7,22,0.00,,---,0.00,VWS V14.00,2013-05-15 18:38:00,
2013-05-15 11:44:00,72.0,31.1,29.77,WSW,240,7.6,7.6,22,0.00,,---,0.00,VWS V14.00,2013-05-15 18:44:00,
2013-05-15 11:50:00,72.5,31.5,29.77,SSE,164,5.8,5.8,22,0.00,,---,0.00,VWS V14.00,2013-05-15 18:50:00,
2013-05-15 11:55:00,72.5,30.4,29.77,SSE,162,5.8,5.8,21,0.00,,---,0.00,VWS V14.00,2013-05-15 18:55:00,
2013-05-15 12:01:00,72.5,31.5,29.77,SE,145,4.9,4.9,22,0.00,,---,0.00,VWS V14.00,2013-05-15 19:01:00,
2013-05-15 12:06:00,73.0,32.0,29.77,SSE,167,3.6,3.6,22,0.00,,---,0.00,VWS V14.00,2013-05-15 19:06:00,
2013-05-15 12:12:00,73.4,31.1,29.77,South,188,8.1,8.1,21,0.00,,---,0.00,VWS V14.00,2013-05-15 19:12:00,
2013-05-15 12:18:00,73.2,31.0,29.77,WSW,249,4.0,4.0,21,0.00,,---,0.00,VWS V14.00,2013-05-15 19:18:00,
2013-05-15 12:24:00,73.4,31.1,29.77,SSE,164,5.4,5.4,21,0.00,,---,0.00,VWS V14.00,2013-05-15 19:24:00,
2013-05-15 12:29:00,74.1,31.7,29.77,WSW,240,5.4,5.4,21,0.00,,---,0.00,VWS V14.00,2013-05-15 19:29:00,
2013-05-15 12:35:00,74.8,32.3,29.77,WSW,256,4.0,6.3,21,0.00,,---,0.00,VWS V14.00,2013-05-15 19:35:00,
2013-05-15 12:40:00,75.6,29.1,29.77,SSE,165,6.3,6.3,18,0.00,,---,0.00,VWS V14.00,2013-05-15 19:40:00,
2013-05-15 12:46:00,75.2,28.8,29.77,SE,146,4.0,4.0,18,0.00,,---,0.00,VWS V14.00,2013-05-15 19:46:00,
2013-05-15 12:52:00,75.2,28.8,29.77,SSW,193,4.9,8.1,18,0.00,,---,0.00,VWS V14.00,2013-05-15 19:52:00,
2013-05-15 12:57:00,75.0,28.7,29.77,SSE,152,3.6,7.6,18,0.00,,---,0.00,VWS V14.00,2013-05-15 19:57:00,
2013-05-15 13:02:00,75.4,29.0,29.77,SE,142,2.7,4.0,18,0.00,,---,0.00,VWS V14.00,2013-05-15 20:02:00,
2013-05-15 13:09:00,75.7,29.3,29.77,South,177,4.5,4.5,18,0.00,,---,0.00,VWS V14.00,2013-05-15 20:09:00,
2013-05-15 13:14:00,76.1,29.6,29.77,ESE,123,5.4,5.4,18,0.00,,---,0.00,VWS V14.00,2013-05-15 20:14:00,
2013-05-15 13:19:00,76.1,29.6,29.77,SSW,206,2.7,2.7,18,0.00,,---,0.00,VWS V14.00,2013-05-15 20:19:00,
2013-05-15 13:25:00,76.5,29.9,29.77,South,185,5.4,6.3,18,0.00,,---,0.00,VWS V14.00,2013-05-15 20:25:00,
2013-05-15 13:31:00,76.5,29.9,29.77,WSW,238,5.4,5.4,18,0.00,,---,0.00,VWS V14.00,2013-05-15 20:31:00,
2013-05-15 13:36:00,76.3,25.3,29.77,WSW,257,6.3,6.3,15,0.00,,---,0.00,VWS V14.00,2013-05-15 20:36:00,
2013-05-15 13:42:00,76.3,25.3,29.77,SSE,159,5.4,5.8,15,0.00,,---,0.00,VWS V14.00,2013-05-15 20:42:00,
2013-05-15 13:47:00,76.3,25.3,29.77,SSE,164,7.6,7.6,15,0.00,,---,0.00,VWS V14.00,2013-05-15 20:47:00,
2013-05-15 13:52:00,76.1,25.1,29.77,SSE,153,3.1,3.1,15,0.00,,---,0.00,VWS V14.00,2013-05-15 20:52:00,
2013-05-15 13:58:00,75.7,24.9,29.77,South,171,3.6,3.6,15,0.00,,---,0.00,VWS V14.00,2013-05-15 20:58:00,
2013-05-15 14:04:00,75.9,25.0,29.77,SSW,197,6.3,6.3,15,0.00,,---,0.00,VWS V14.00,2013-05-15 21:04:00,
2013-05-15 14:09:00,76.1,25.1,29.77,South,190,4.9,4.9,15,0.00,,---,0.00,VWS V14.00,2013-05-15 21:09:00,
2013-05-15 14:15:00,76.1,25.1,29.77,SW,232,2.7,2.7,15,0.00,,---,0.00,VWS V14.00,2013-05-15 21:15:00,
2013-05-15 14:21:00,76.3,25.3,29.77,SSW,194,2.7,2.7,15,0.00,,---,0.00,VWS V14.00,2013-05-15 21:21:00,
2013-05-15 14:26:00,76.3,25.3,29.77,SSW,203,3.1,3.1,15,0.00,,---,0.00,VWS V14.00,2013-05-15 21:26:00,
2013-05-15 14:32:00,76.3,25.3,29.77,SSW,195,6.3,6.3,15,0.00,,---,0.00,VWS V14.00,2013-05-15 21:32:00,
2013-05-15 14:37:00,76.6,25.6,29.77,South,176,3.6,6.3,15,0.00,,---,0.00,VWS V14.00,2013-05-15 21:37:00,
2013-05-15 14:42:00,76.6,25.6,29.77,WSW,254,3.1,4.9,15,0.00,,---,0.00,VWS V14.00,2013-05-15 21:42:00,
2013-05-15 14:47:00,76.5,25.4,29.77,SW,233,4.0,4.0,15,0.00,,---,0.00,VWS V14.00,2013-05-15 21:47:00,
2013-05-15 14:53:00,76.3,25.3,29.77,West,272,3.6,3.6,15,0.00,,---,0.00,VWS V14.00,2013-05-15 21:53:00,
2013-05-15 14:59:00,76.6,25.6,29.77,SW,227,3.1,3.1,15,0.00,,---,0.00,VWS V14.00,2013-05-15 21:59:00,
2013-05-15 15:04:00,76.6,25.6,29.77,SSW,198,5.4,5.4,15,0.00,,---,0.00,VWS V14.00,2013-05-15 22:04:00,
2013-05-15 15:10:00,76.8,25.7,29.77,SSW,195,3.6,3.6,15,0.00,,---,0.00,VWS V14.00,2013-05-15 22:10:00,
2013-05-15 15:15:00,76.8,25.7,29.77,SE,145,5.8,5.8,15,0.00,,---,0.00,VWS V14.00,2013-05-15 22:15:00,
2013-05-15 15:20:00,76.8,25.7,29.74,SSE,158,6.3,6.3,15,0.00,,---,0.00,VWS V14.00,2013-05-15 22:20:00,
2013-05-15 15:26:00,76.8,25.7,29.74,SSW,200,4.9,5.8,15,0.00,,---,0.00,VWS V14.00,2013-05-15 22:26:00,
2013-05-15 15:31:00,77.2,26.0,29.74,South,176,2.7,3.1,15,0.00,,---,0.00,VWS V14.00,2013-05-15 22:31:00,
2013-05-15 15:37:00,77.4,26.1,29.74,South,170,6.3,6.3,15,0.00,,---,0.00,VWS V14.00,2013-05-15 22:37:00,
2013-05-15 15:42:00,77.2,26.0,29.74,SSE,161,6.3,6.3,15,0.00,,---,0.00,VWS V14.00,2013-05-15 22:42:00,
2013-05-15 15:48:00,77.0,25.9,29.74,West,274,3.6,8.1,15,0.00,,---,0.00,VWS V14.00,2013-05-15 22:48:00,
2013-05-15 15:53:00,77.2,26.0,29.74,South,169,3.1,3.1,15,0.00,,---,0.00,VWS V14.00,2013-05-15 22:53:00,
2013-05-15 15:59:00,77.4,26.1,29.74,WSW,245,0.0,0.0,15,0.00,,---,0.00,VWS V14.00,2013-05-15 22:59:00,
2013-05-15 16:05:00,77.4,26.1,29.71,WSW,246,4.0,4.0,15,0.00,,---,0.00,VWS V14.00,2013-05-15 23:05:00,
2013-05-15 16:10:00,77.5,26.3,29.71,South,185,2.7,2.7,15,0.00,,---,0.00,VWS V14.00,2013-05-15 23:10:00,
2013-05-15 16:15:00,77.7,26.4,29.71,South,169,7.6,7.6,15,0.00,,---,0.00,VWS V14.00,2013-05-15 23:15:00,
2013-05-15 16:21:00,77.7,26.4,29.74,SW,214,3.6,3.6,15,0.00,,---,0.00,VWS V14.00,2013-05-15 23:21:00,
2013-05-15 16:27:00,78.1,26.7,29.74,SSW,207,4.0,4.0,15,0.00,,---,0.00,VWS V14.00,2013-05-15 23:27:00,
2013-05-15 16:33:00,78.1,26.7,29.74,SSW,197,4.9,4.9,15,0.00,,---,0.00,VWS V14.00,2013-05-15 23:33:00,
2013-05-15 16:39:00,78.1,26.7,29.74,SE,129,8.3,8.3,15,0.00,,---,0.00,VWS V14.00,2013-05-15 23:39:00,
2013-05-15 16:45:00,77.4,26.1,29.74,SW,221,4.0,4.0,15,0.00,,---,0.00,VWS V14.00,2013-05-15 23:45:00,
2013-05-15 16:50:00,77.5,26.3,29.74,SE,145,5.4,5.4,15,0.00,,---,0.00,VWS V14.00,2013-05-15 23:50:00,
2013-05-15 16:55:00,77.7,26.4,29.74,SSE,166,0.0,4.0,15,0.00,,---,0.00,VWS V14.00,2013-05-15 23:55:00,
2013-05-15 17:01:00,77.5,26.3,29.74,South,187,3.6,3.6,15,0.00,,---,0.00,VWS V14.00,2013-05-16 00:01:00,
2013-05-15 17:06:00,77.4,26.1,29.71,WSW,239,3.1,4.0,15,0.00,,---,0.00,VWS V14.00,2013-05-16 00:06:00,
2013-05-15 17:12:00,77.5,26.3,29.71,South,187,3.6,3.6,15,0.00,,---,0.00,VWS V14.00,2013-05-16 00:12:00,
2013-05-15 17:17:00,77.4,26.1,29.71,SSW,198,5.8,5.8,15,0.00,,---,0.00,VWS V14.00,2013-05-16 00:17:00,
2013-05-15 17:22:00,77.4,26.1,29.74,SE,137,5.8,5.8,15,0.00,,---,0.00,VWS V14.00,2013-05-16 00:22:00,
2013-05-15 17:28:00,77.4,26.1,29.74,South,181,4.0,5.8,15,0.00,,---,0.00,VWS V14.00,2013-05-16 00:28:00,
2013-05-15 17:34:00,77.4,26.1,29.74,South,186,8.3,8.3,15,0.00,,---,0.00,VWS V14.00,2013-05-16 00:34:00,
2013-05-15 17:40:00,77.2,26.0,29.74,South,179,3.1,3.1,15,0.00,,---,0.00,VWS V14.00,2013-05-16 00:40:00,
2013-05-15 17:45:00,76.8,25.7,29.74,South,186,4.0,4.0,15,0.00,,---,0.00,VWS V14.00,2013-05-16 00:45:00,
2013-05-15 17:51:00,76.6,25.6,29.71,South,171,3.1,3.1,15,0.00,,---,0.00,VWS V14.00,2013-05-16 00:51:00,
2013-05-15 17:57:00,76.6,25.6,29.71,SW,233,4.9,4.9,15,0.00,,---,0.00,VWS V14.00,2013-05-16 00:57:00,
2013-05-15 18:02:00,76.5,25.4,29.71,SSE,168,5.8,5.8,15,0.00,,---,0.00,VWS V14.00,2013-05-16 01:02:00,
2013-05-15 18:08:00,76.5,25.4,29.71,SSW,194,4.0,4.0,15,0.00,,---,0.00,VWS V14.00,2013-05-16 01:08:00,
2013-05-15 18:15:00,75.9,25.0,29.71,South,177,3.1,3.1,15,0.00,,---,0.00,VWS V14.00,2013-05-16 01:15:00,
2013-05-15 18:20:00,75.7,24.9,29.71,SE,136,3.6,4.0,15,0.00,,---,0.00,VWS V14.00,2013-05-16 01:20:00,
2013-05-15 18:26:00,75.0,25.8,29.71,South,173,6.3,6.3,16,0.00,,---,0.00,VWS V14.00,2013-05-16 01:26:00,
2013-05-15 18:32:00,74.7,25.5,29.71,SSW,207,5.4,5.4,16,0.00,,---,0.00,VWS V14.00,2013-05-16 01:32:00,
2013-05-15 18:37:00,74.5,28.2,29.71,SSW,206,3.1,3.1,18,0.00,,---,0.00,VWS V14.00,2013-05-16 01:37:00,
2013-05-15 18:43:00,74.1,27.9,29.71,SSW,203,3.6,3.6,18,0.00,,---,0.00,VWS V14.00,2013-05-16 01:43:00,
2013-05-15 18:48:00,74.1,27.9,29.71,South,174,5.4,5.4,18,0.00,,---,0.00,VWS V14.00,2013-05-16 01:48:00,
2013-05-15 18:53:00,73.8,27.6,29.71,SSE,167,6.3,6.3,18,0.00,,---,0.00,VWS V14.00,2013-05-16 01:53:00,
2013-05-15 18:59:00,73.4,27.4,29.71,SSW,208,3.1,3.1,18,0.00,,---,0.00,VWS V14.00,2013-05-16 01:59:00,
2013-05-15 19:07:00,72.9,28.2,29.71,SW,225,3.1,3.6,19,0.00,,---,0.00,VWS V14.00,2013-05-16 02:07:00,
2013-05-15 19:13:00,72.5,27.9,29.71,SSW,202,3.1,3.1,19,0.00,,---,0.00,VWS V14.00,2013-05-16 02:13:00,
2013-05-15 19:19:00,72.0,27.5,29.71,South,170,4.0,4.0,19,0.00,,---,0.00,VWS V14.00,2013-05-16 02:19:00,
2013-05-15 19:26:00,71.4,27.0,29.71,SSW,199,5.4,5.8,19,0.00,,---,0.00,VWS V14.00,2013-05-16 02:26:00,
2013-05-15 19:32:00,71.1,26.8,29.71,South,189,3.6,3.6,19,0.00,,---,0.00,VWS V14.00,2013-05-16 02:32:00,
2013-05-15 19:37:00,70.7,30.0,29.71,South,187,3.6,3.6,22,0.00,,---,0.00,VWS V14.00,2013-05-16 02:37:00,
2013-05-15 19:42:00,70.3,29.7,29.71,SSW,209,3.1,3.1,22,0.00,,---,0.00,VWS V14.00,2013-05-16 02:42:00,
2013-05-15 19:48:00,70.3,29.7,29.71,South,172,5.4,5.4,22,0.00,,---,0.00,VWS V14.00,2013-05-16 02:48:00,
2013-05-15 19:54:00,69.8,29.3,29.71,SSE,157,4.9,4.9,22,0.00,,---,0.00,VWS V14.00,2013-05-16 02:54:00,
2013-05-15 19:59:00,69.4,29.0,29.71,South,191,6.3,6.3,22,0.00,,---,0.00,VWS V14.00,2013-05-16 02:59:00,
2013-05-15 20:04:00,69.3,28.8,29.71,South,171,4.0,4.0,22,0.00,,---,0.00,VWS V14.00,2013-05-16 03:04:00,
2013-05-15 20:12:00,68.9,28.5,29.71,SSE,166,3.6,3.6,22,0.00,,---,0.00,VWS V14.00,2013-05-16 03:12:00,
2013-05-15 20:18:00,68.5,28.2,29.71,SSE,158,4.0,4.0,22,0.00,,---,0.00,VWS V14.00,2013-05-16 03:18:00,
2013-05-15 20:24:00,68.4,29.1,29.71,SSE,149,3.1,3.1,23,0.00,,---,0.00,VWS V14.00,2013-05-16 03:24:00,
2013-05-15 20:30:00,67.8,28.7,29.71,SSE,164,5.4,5.4,23,0.00,,---,0.00,VWS V14.00,2013-05-16 03:30:00,
2013-05-15 20:37:00,67.3,28.2,29.71,SE,132,5.8,5.8,23,0.00,,---,0.00,VWS V14.00,2013-05-16 03:37:00,
2013-05-15 20:43:00,66.9,27.9,29.71,East,97,4.0,4.0,23,0.00,,---,0.00,VWS V14.00,2013-05-16 03:43:00,
2013-05-15 20:49:00,66.6,28.7,29.71,South,190,5.4,5.4,24,0.00,,---,0.00,VWS V14.00,2013-05-16 03:49:00,
2013-05-15 20:54:00,66.2,28.4,29.71,SSE,156,4.0,4.0,24,0.00,,---,0.00,VWS V14.00,2013-05-16 03:54:00,
2013-05-15 21:00:00,66.0,28.2,29.71,SE,130,3.6,3.6,24,0.00,,---,0.00,VWS V14.00,2013-05-16 04:00:00,
2013-05-15 21:01:00,66.0,28.2,29.71,SSE,160,2.7,4.0,24,0.00,,---,0.00,VWS V14.00,2013-05-16 04:01:00,
2013-05-15 21:03:00,65.8,28.1,29.71,SE,144,3.6,6.7,24,0.00,,---,0.00,VWS V14.00,2013-05-16 04:03:00,
2013-05-15 21:05:00,65.8,29.1,29.71,ESE,106,3.6,4.0,25,0.00,,---,0.00,VWS V14.00,2013-05-16 04:05:00,
2013-05-15 21:06:00,65.8,29.1,29.71,ESE,106,3.6,3.6,25,0.00,,---,0.00,VWS V14.00,2013-05-16 04:06:00,
2013-05-15 21:11:00,65.5,28.8,29.71,SE,143,4.0,4.0,25,0.00,,---,0.00,VWS V14.00,2013-05-16 04:11:00,
2013-05-15 21:16:00,65.3,28.6,29.71,SE,139,4.0,4.0,25,0.00,,---,0.00,VWS V14.00,2013-05-16 04:16:00,
2013-05-15 21:22:00,65.1,28.5,29.71,ESE,121,4.9,4.9,25,0.00,,---,0.00,VWS V14.00,2013-05-16 04:22:00,
2013-05-15 21:28:00,64.9,29.3,29.71,South,177,3.6,3.6,26,0.00,,---,0.00,VWS V14.00,2013-05-16 04:28:00,
2013-05-15 21:33:00,64.8,29.1,29.74,SSE,155,4.0,4.0,26,0.00,,---,0.00,VWS V14.00,2013-05-16 04:33:00,
2013-05-15 21:39:00,64.4,28.8,29.74,SE,142,6.3,6.3,26,0.00,,---,0.00,VWS V14.00,2013-05-16 04:39:00,
2013-05-15 21:45:00,64.2,29.6,29.74,SE,134,3.1,5.4,27,0.00,,---,0.00,VWS V14.00,2013-05-16 04:45:00,
2013-05-15 21:50:00,64.2,29.6,29.74,South,169,3.1,3.1,27,0.00,,---,0.00,VWS V14.00,2013-05-16 04:50:00,
2013-05-15 21:55:00,64.0,29.4,29.74,South,190,6.7,6.7,27,0.00,,---,0.00,VWS V14.00,2013-05-16 04:55:00,
2013-05-15 22:01:00,63.7,30.0,29.74,SE,146,5.8,5.8,28,0.00,,---,0.00,VWS V14.00,2013-05-16 05:01:00,
2013-05-15 22:06:00,63.7,30.0,29.74,SSE,154,4.0,4.0,28,0.00,,---,0.00,VWS V14.00,2013-05-16 05:06:00,
2013-05-15 22:11:00,63.5,29.8,29.74,South,178,4.0,4.0,28,0.00,,---,0.00,VWS V14.00,2013-05-16 05:11:00,
2013-05-15 22:16:00,63.3,29.7,29.71,SSE,155,4.0,4.0,28,0.00,,---,0.00,VWS V14.00,2013-05-16 05:16:00,
2013-05-15 22:22:00,63.3,30.5,29.71,SE,143,8.7,8.7,29,0.00,,---,0.00,VWS V14.00,2013-05-16 05:22:00,
2013-05-15 22:27:00,63.1,30.4,29.71,SE,133,2.2,4.0,29,0.00,,---,0.00,VWS V14.00,2013-05-16 05:27:00,
2013-05-15 22:32:00,63.0,30.2,29.71,SE,126,3.6,3.6,29,0.00,,---,0.00,VWS V14.00,2013-05-16 05:32:00,
2013-05-15 22:37:00,62.8,30.1,29.71,SE,146,3.6,3.6,29,0.00,,---,0.00,VWS V14.00,2013-05-16 05:37:00,
2013-05-15 22:43:00,62.4,30.6,29.71,SE,138,5.4,5.4,30,0.00,,---,0.00,VWS V14.00,2013-05-16 05:43:00,
2013-05-15 22:48:00,62.2,31.2,29.71,SSE,166,3.6,3.6,31,0.00,,---,0.00,VWS V14.00,2013-05-16 05:48:00,
2013-05-15 22:53:00,62.1,31.1,29.71,SSE,153,4.9,4.9,31,0.00,,---,0.00,VWS V14.00,2013-05-16 05:53:00,
2013-05-15 22:58:00,62.1,31.9,29.71,SE,145,4.9,4.9,32,0.00,,---,0.00,VWS V14.00,2013-05-16 05:58:00,
2013-05-15 23:04:00,61.9,31.7,29.71,SE,133,5.8,5.8,32,0.00,,---,0.00,VWS V14.00,2013-05-16 06:04:00,
2013-05-15 23:10:00,61.7,31.6,29.71,South,175,3.6,5.4,32,0.00,,---,0.00,VWS V14.00,2013-05-16 06:10:00,
2013-05-15 23:16:00,61.5,32.9,29.71,SSE,152,2.7,3.1,34,0.00,,---,0.00,VWS V14.00,2013-05-16 06:16:00,
2013-05-15 23:21:00,61.3,32.8,29.74,ESE,116,3.1,3.1,34,0.00,,---,0.00,VWS V14.00,2013-05-16 06:21:00,
2013-05-15 23:27:00,61.2,32.6,29.74,SSE,156,2.7,6.3,34,0.00,,---,0.00,VWS V14.00,2013-05-16 06:27:00,
2013-05-15 23:33:00,61.0,32.4,29.71,SE,126,8.7,8.7,34,0.00,,---,0.00,VWS V14.00,2013-05-16 06:33:00,
2013-05-15 23:38:00,60.6,32.1,29.71,South,177,3.6,5.4,34,0.00,,---,0.00,VWS V14.00,2013-05-16 06:38:00,
2013-05-15 23:43:00,60.6,32.1,29.71,South,172,2.7,2.7,34,0.00,,---,0.00,VWS V14.00,2013-05-16 06:43:00,
2013-05-15 23:49:00,60.4,32.0,29.71,SSE,162,3.1,7.6,34,0.00,,---,0.00,VWS V14.00,2013-05-16 06:49:00,
2013-05-15 23:54:00,60.3,31.8,29.74,ESE,123,5.4,5.4,34,0.00,,---,0.00,VWS V14.00,2013-05-16 06:54:00,
2013-05-15 23:59:00,60.3,31.8,29.74,SSE,162,4.9,4.9,34,0.00,,---,0.00,VWS V14.00,2013-05-16 06:59:00,